User: anonymous   Login
Location: Red Bud (historical)
(37.7759°N, 88.4053°W)
Time: 20:39:46
(UTC+00:00)
Language:

N. Korean satellite - Orbit

View from above orbital plane
View from above orbital plane
View from above satellite
View from above satellite

Ground track
Ground track

The orbit data is extracted from the following two-line orbital elements,

1 39026U 12072A   21204.51326822  .00003132  00000-0  10732-3 0  9995
2 39026  97.2447 196.5062 0033563 254.9970 104.7556 15.30416010478547
Epoch (UTC): 23 July 2021 12:19:06
Eccentricity: 0.0033563
inclination: 97.2447°
perigee height: 451 km
apogee height: 497 km
right ascension of ascending node: 196.5062°
argument of perigee: 254.9970°
revolutions per day: 15.30416010
mean anomaly at epoch: 104.7556°
orbit number at epoch: 47854

The dashed part of the orbit path shows where the satellite is in the earth's shadow,  

DLR